Weather Roundup
Issued by NWS

Home | Current Version | Previous Version | Graphics & Text | Print | Product List | Glossary Off
Versions: 1 2 3 4 5 6 7 8 9 10 11 12 13 14 15 16 17 18 19 20 21 22 23 24 25 26 27 28 29 30 31 32 33 34 35 36 37 38 39 40 41 42 43 44 45 46 47 48 49 50

460
NZUS93 KARX 011410
HRRWXR

CURRENT HOURLY OBSERVATIONS ACROSS
MUCH OF THE UPPER MISSISSIPPI VALLEY
NATIONAL WEATHER SERVICE LA CROSSE WI
900 AM CDT SUN MAY 01 2016


...SOUTHEAST MINNESOTA...


CITY           SKY/WX    TMP DP  RH WIND       PRES   REMARKS
ROCHESTER      CLOUDY    44  39  82 NE15      30.10R
ROCHESTER/MAYO CLOUDY    43  35  73 N7        30.11S
WINONA         CLOUDY    46  36  66 NE3       30.13R
AUSTIN         CLOUDY    45  37  76 NE10G20   30.08S
ALBERT LEA     CLOUDY    45  39  81 N9        30.09S
DODGE CENTER   CLOUDY    41  41 100 NE14      30.10S
PRESTON        CLOUDY    43  37  79 NE15      30.08S
OWATONNA       CLOUDY    45  36  70 N13       30.12R
FARIBAULT      CLOUDY    45  37  76 VRB9G17   30.13S
$$

...ELSEWHERE IN MINNESOTA...


CITY           SKY/WX    TMP DP  RH WIND       PRES   REMARKS
MINNEAPOLIS    PTSUNNY   46  34  62 NE14G20   30.17R
INTNL FALLS    SUNNY     46  31  55 NE5       30.31S
DULUTH         PTSUNNY   41  33  73 E13       30.25R
RED WING       CLOUDY    46  34  61 NE6       30.13S
REDWOOD FALLS  CLOUDY    45  33  63 NE8G17    30.18R
MANKATO        CLOUDY    43  36  75 N14       30.13S
WORTHINGTON    CLOUDY    39  35  86 N16       30.14R WCI  30
FAIRMONT       CLOUDY    41  34  75 N13       30.11S
$$

...SOUTHWEST WISCONSIN...


CITY           SKY/WX    TMP DP  RH WIND       PRES   REMARKS
LA CROSSE      CLOUDY    48  35  60 NE8       30.10R
PRAIRIE DU CHI CLOUDY    47  38  71 NE8G21    30.05S
BOSCOBEL       CLOUDY    48  40  73 NE8       30.06S
LONE ROCK      CLOUDY    47  38  71 NE12      30.06R
PLATTEVILLE    CLOUDY    44  43  95 NE16      30.02S
FORT MC COY    CLOUDY    47  36  67 NE8       30.11R
CAMP DOUGLAS   CLOUDY    46  43  87 NE8       30.09R
MAUSTON-NEW LI CLOUDY    46  36  69 NE5       30.08R
VIROQUA        CLOUDY    44  37  75 NE10      30.07S
WIS DELLS      CLOUDY    44  36  74 NE7       30.07R
$$

...ELSEWHERE IN WISCONSIN...


CITY           SKY/WX    TMP DP  RH WIND       PRES   REMARKS
MILWAUKEE      CLOUDY    42  40  92 N15G28    30.04R
MADISON        CLOUDY    46  40  79 NE12      30.05R
GREEN BAY      LGT RAIN  45  39  79 NE10      30.10R
EAU CLAIRE     CLOUDY    47  35  63 NE10      30.14R
BLACK RVR FLS  CLOUDY    45  36  71 NE5       30.12R
MEDFORD        CLOUDY    44  36  73 N9        30.12S
WAUSAU         CLOUDY    48  33  56 NE7       30.11R
WIS RAPIDS     CLOUDY    46  32  58 NE10      30.12R
MARSHFIELD     CLOUDY    47  35  63 NE9       30.11R
RICE LAKE      SUNNY     44  36  72 N10       30.18S
$$

...NORTHEAST IOWA...


CITY           SKY/WX    TMP DP  RH WIND       PRES   REMARKS
WATERLOO       CLOUDY    45  40  82 NE12      30.03R
DUBUQUE        CLOUDY    43  42  97 NE13      30.01S FOG
DECORAH        PTSUNNY   43  43 100 NE9G16    30.05S
MASON CITY     CLOUDY    45  40  82 NE16      30.08R
CHARLES CITY   CLOUDY    45  43  93 NE20      30.05S
OELWEIN        CLOUDY    45  43  93 NE18      30.03R
$$

...ELSEWHERE IN IOWA...


CITY           SKY/WX    TMP DP  RH WIND       PRES   REMARKS
DES MOINES     CLOUDY    46  43  89 E8        30.00R
IOWA CITY      CLOUDY    47  45  93 NE13      30.00R
FORT DODGE     CLOUDY    43  37  81 NE13G21   30.06R
MARSHALLTOWN   CLOUDY    44  42  93 NE17      30.01R
CEDAR RAPIDS   CLOUDY    45  44  97 NE17      29.98R
$$

...NORTHERN ILLINOIS...


CITY           SKY/WX    TMP DP  RH WIND       PRES   REMARKS
CHICAGO-OHARE  FOG       43  43 100 NE13      30.00R VSB 3/4
CHICAGO-MIDWAY CLOUDY    45  42  89 N13       29.99R FOG
MOLINE         CLOUDY    49  45  86 NE10      29.97S FOG
ROCKFORD       CLOUDY    46  43  89 E9        30.04R
PEORIA         CLOUDY    50  48  93 NE8       29.95S FOG
$$

NOTE: "FAIR" INDICATES FEW OR NO CLOUDS BELOW 12,000 FEET WITH NO
SIGNIFICANT WEATHER AND/OR OBSTRUCTIONS TO VISIBILITY. WIND
SPEEDS ARE IN MILES-PER-HOUR.




USA.gov is the U.S. government's official web portal to all federal, state and local government web resources and services.